Location: Владивосток
(43.1151°N, 131.8856°E)
Time: 16:48:50
(UTC+10:00)

LO-87 - Pass Details

Date: 07 July 2022
Orbit: 451 x 466 km, 97.4° (Epoch: 07 August)

Event Time Altitude Azimuth Distance (km) Brightness Sun altitude
Exits shadow 00:00:22 21° 65° (ENE) 1,083 ? -22.0°
Drops below altitude 10° 00:02:57 10° 18° (NNE) 1,626 ? -22.1°
Sets 00:05:19 0° 2° (N) 2,511 ? -22.3°
